User: anonymous
Location: Mt. Cuba Astronomical Observatory
(39.8100°N, 75.6300°W)
Time: 17:56:01
(UTC-04:00)
Language:

Cosmos 2058 - Orbit

View from above orbital plane
View from above orbital plane
View from above satellite
View from above satellite

Ground track
Ground track

The orbit data is extracted from the following two-line orbital elements,

1 20465U 90010A   14273.41920783  .00002748  00000-0  24775-3 0  2394
2 20465 082.4895 119.3236 0017145 033.0181 327.2107 14.95110590337138
Epoch (UTC): 30 September 2014 10:03:39
Eccentricity: 0.0017145
inclination: 82.4895°
perigee height: 570 km
apogee height: 594 km
right ascension of ascending node: 119.3236°
argument of perigee: 33.0181°
revolutions per day: 14.95110590
mean anomaly at epoch: 327.2107°
orbit number at epoch: 33713

The dashed part of the orbit path shows where the satellite is in the earth's shadow,  

DLR